Simultaneous Nadir Overpasses (SNOs) Predictions

Prediction of SNOs between NOAA-19 and TERRA Satellite Orbit:

Table of predicted SNOs for the next 14.0 days since TLE Epoch: 11/16/2019
Index Date (NOAA-19) Time (NOAA-19) Lat,Lon (NOAA-19) SZA (NOAA-19 ) Date (TERRA) Time (TERRA) Lat,Lon (TERRA) SZA (TERRA ) Distance(km) Time Diff (sec)
1 11/17/2019 11:37:28 -78.94,-149.65 80.88 11/17/2019 11:38:20 -78.94,-149.83 80.87 3.77 52
2 11/17/2019 12:28:24 78.91, 17.78 99.13 11/17/2019 12:27:46 78.93, 17.77 99.13 1.78 38
3 11/19/2019 17:10:50 79.05, -53.84 99.68 11/19/2019 17:12:03 78.93, -53.31 99.64 18.00 73
4 11/19/2019 18:01:50 -78.94, 114.35 80.34 11/19/2019 18:01:30 -78.94, 114.39 80.35 0.91 20
5 11/21/2019 23:35:09 78.94,-148.96 100.16 11/21/2019 23:35:12 78.97,-148.88 100.18 2.85 3
6 11/24/2019 05:08:34 -78.96, -52.35 79.38 11/24/2019 05:08:56 -78.97, -52.28 79.36 1.91 22
7 11/24/2019 05:59:31 78.93, 115.14 100.63 11/24/2019 05:58:23 78.92, 115.05 100.58 2.34 68
8 11/26/2019 10:41:54 78.98, 44.29 101.06 11/26/2019 10:42:38 78.99, 44.39 101.09 2.57 44
9 11/26/2019 11:32:55 -78.93,-148.13 78.95 11/26/2019 11:32:06 -78.96,-148.12 78.94 3.43 49
10 11/28/2019 16:15:18 -78.99, 140.89 78.54 11/28/2019 16:16:22 -78.99, 140.97 78.52 1.78 64




NCC Satellite Simultaneous Nadir Overpasses (SNOs) Prediction Service
